Location: Krakow
(50.0830°N, 19.9170°E)
Time: 00:10:37
(UTC+01:00)

Transit 2A Rocket - Pass Details

Date: 11 December 2023
Orbit: 590 x 905 km, 66.7° (Epoch: 01 March)

Event Time Altitude Azimuth Distance (km) Brightness Sun altitude
Rises 03:43:13 0° 323° (NW) 2,838 - -34.9°
Reaches altitude 10° 03:45:25 10° 323° (NW) 1,943 - -34.6°
Maximum altitude 03:49:46 89° 58° (ENE) 621 - -33.9°
Exits shadow 03:53:47 13° 144° (SE) 1,819 7.2 -33.2°
Drops below altitude 10° 03:54:20 10° 144° (SE) 2,036 7.5 -33.1°
Sets 03:56:41 0° 145° (SE) 2,986 8.5 -32.8°
